Skip Page Navigation
NASA JPL Caltech
NASA Logo - Jet Propulsion Laboratory + View the NASA Portal
+ Center for Near-Earth Object Studies
JPL Home Earth Solar System Stars & Galaxies Technology
JPL Solar System Dynamics
BODIES ORBITS EPHEMERIDES TOOLS PHYSICAL DATA DISCOVERY FAQ SITE MAP
JPL Small-Body Database Browser
Search: [ help ]  
434071 (2001 XO133)
Classification: Main-belt Asteroid          SPK-ID: 2434071
Ephemeris | Orbit Diagram | Orbital Elements | Mission Design | Physical Parameters | Discovery Circumstances | Close-Approach Data ]

[ hide orbit diagram ]

For accurate long-term ephemerides, please instead use our Horizons system.This orbit viewer was implemented using two-body methods, and hence should not be used for determining accurate long-term trajectories (over several years or decades) or planetary encounter circumstances.


[ revert to old Java-based viewer ]

Orbital Elements at Epoch 2459000.5 (2020-May-31.0) TDB
Reference: JPL 14 (heliocentric ecliptic J2000)
 Element Value Uncertainty (1-sigma)   Units 
e .1033957166703598 7.5162e-08  
a 3.094910238111521 4.3598e-08 au
q 2.774909776011546 2.4318e-07 au
i 10.81500074558919 7.8866e-06 deg
node 88.16899213424071 3.6363e-05 deg
peri 346.7038688648886 4.7568e-05 deg
M 140.6553312436172 3.1373e-05 deg
tp 2458223.494289803707
(2018-Apr-14.99428980)
0.00016859 TDB
period 1988.705676475089
5.44
4.2022e-05
1.15e-07
d
yr
n .1810222619960976 3.8251e-09 deg/d
Q 3.414910700211495 4.8106e-08 au
  Orbit Determination Parameters
   # obs. used (total)      173  
   data-arc span      6709 days (18.37 yr)  
   first obs. used      2001-12-12  
   last obs. used      2020-04-25  
   planetary ephem.      DE431  
   SB-pert. ephem.      SB431-N16  
   condition code      0  
   norm. resid. RMS      .60242  
   source      ORB  
   producer      Otto Matic  
   solution date      2020-May-22 03:24:12  

Additional Information
 Earth MOID = 1.79148 au 
 Jupiter MOID = 1.83468 au 
 T_jup = 3.188 
[ show covariance matrix ]

Ephemeris | Orbit Diagram | Orbital Elements | Mission Design | Physical Parameters | Discovery Circumstances | Close-Approach Data ]

Physical Parameter Table
Parameter Symbol Value Units Sigma Reference Notes
absolute magnitude H 15.9   n/a MPO437679  

434071 (2001 XO133)          Discovered 2001-Dec-14 by LINEAR at Socorro
Reference: Last Updated: 2015-06-04

[ show close-approach data ]
Alternate Designations
 2001 XO133 = 2008 AN135 
Ephemeris | Orbit Diagram | Orbital Elements | Mission Design | Physical Parameters | Discovery Circumstances | Close-Approach Data ]
ABOUT SSD CREDITS/AWARDS PRIVACY/COPYRIGHT GLOSSARY LINKS
FirstGov 2020-Aug-03 08:52 UT
(server date/time)  
NASA Home Page
Site Manager:   Ryan S. Park
Webmaster  Alan B. Chamberlin